Change the Weather History Date:

Tuesday, January 1, 2013

  Actual Average (PABR) Record (PABR)
Temperature  
Mean Temperature -2 °F -11 °F  
Max Temperature 3 °F -5 °F 30 °F (1928)
Min Temperature -6 °F -18 °F -51 °F (1956)
Degree Days  
Heating Degree Days 66 76  
Month to date heating degree days 76  
Since 1 July heating degree days 8283  
Cooling Degree Days 0    
Month to date cooling degree days  
Year to date cooling degree days  
Moisture  
Dew Point -9 °F    
Average Humidity 75    
Maximum Humidity 79    
Minimum Humidity 71    
Precipitation  
Precipitation 0.00 in 0.00 in 0.16 in (1924)
Month to date precipitation 0.00  
Year to date precipitation 0.00  
Snow  
Snow 0.00 in 0.10 in 2.50 in (1938)
Month to date snowfall 0.1  
Since 1 July snowfall 23.9  
Snow Depth -    
Sea Level Pressure  
Sea Level Pressure 29.90 in    
Wind  
Wind Speed 27 mph (ENE)    
Max Wind Speed 31 mph    
Max Gust Speed 37 mph    
Visibility 2 miles    
Events Snow    
T = Trace of Precipitation, MM = Missing Value Source: NWS Daily Summary

Daily Weather History Graph

Daily Weather History Graph

Search for Another Location

Airport or City:

Trip Planner

Search our weather history database for the weather conditions in past years. The results will help you decide how hot, cold, wet, or windy it might be!

Date:

Astronomy

Dec. 31, 1969 Rise Set
Actual Time Sun does not rise Sun does not rise
Civil Twilight 11:41 AM AKST 3:46 PM AKST
Nautical Twilight 9:49 AM AKST 5:38 PM AKST
Astronomical Twilight 8:28 AM AKST 7:00 PM AKST
Moon 10:34 PM AKST (1/1) 12:09 PM AKST (1/1)
Length of Visible Light 4h 04m
Length of Day
0h 00m
Waning Gibbous, 82% of the Moon is Illuminated
Jan 1
Waning Gibbous
Jan 4
Last Quarter
Jan 11
New
Jan 18
First Quarter
Jan 26
Full

Hourly Weather History & Observations

Time (AKST) Temp. Windchill Dew Point Humidity Pressure Visibility Wind Dir Wind Speed Gust Speed Precip Events Conditions
12:06 AM -5.8 °F -33.7 °F -11.2 °F 77% 30.02 in 0.5 mi ENE 29.9 mph 33.4 mph 0.00 in Snow Snow
12:13 AM -5.8 °F -31.5 °F -11.2 °F 77% 30.02 in 0.5 mi ENE 24.2 mph - 0.00 in Snow Snow
12:53 AM -6.0 °F -32.7 °F -13.0 °F 72% 30.02 in 0.8 mi ENE 26.5 mph 32.2 mph 0.00 in Snow Light Snow
1:23 AM -5.8 °F -32.4 °F -13.0 °F 71% 30.03 in 0.8 mi ENE 26.5 mph 33.4 mph 0.00 in Snow Light Snow
1:53 AM -6.0 °F -34.3 °F -11.9 °F 75% 30.03 in 0.5 mi ENE 31.1 mph 35.7 mph 0.00 in Snow Snow
2:26 AM -5.8 °F -32.4 °F -11.2 °F 77% 30.03 in 0.5 mi ENE 26.5 mph 35.7 mph 0.00 in Snow Snow
2:53 AM -6.0 °F -32.2 °F -11.9 °F 75% 30.03 in 0.5 mi ENE 25.3 mph - 0.00 in Snow Snow
3:42 AM -5.8 °F -32.4 °F -11.2 °F 77% 30.01 in 0.8 mi ENE 26.5 mph 33.4 mph 0.00 in   Overcast
3:53 AM -5.1 °F -32.7 °F -11.0 °F 76% 30.01 in 0.5 mi ENE 29.9 mph - 0.00 in Snow Snow
4:00 AM -5.8 °F -34.1 °F -11.2 °F 77% 30.00 in 0.5 mi ENE 31.1 mph - 0.00 in Snow Snow
4:15 AM -5.8 °F -33.7 °F -11.2 °F 77% 30.00 in 0.5 mi ENE 29.9 mph 34.5 mph 0.00 in Snow Snow
4:53 AM -5.1 °F -32.3 °F -11.0 °F 76% 29.99 in 0.8 mi East 28.8 mph 32.2 mph 0.00 in Snow Light Snow
5:26 AM -5.8 °F -33.3 °F -11.2 °F 77% 29.97 in 0.8 mi ENE 28.8 mph 35.7 mph 0.00 in Snow Light Snow
5:53 AM -4.0 °F -29.6 °F -9.9 °F 76% 29.98 in 0.8 mi ENE 25.3 mph - 0.00 in Snow Light Snow
6:15 AM -4.0 °F -30.0 °F -9.4 °F 78% 29.97 in 0.8 mi ENE 26.5 mph 32.2 mph 0.00 in Snow Light Snow
6:53 AM -4.0 °F -30.0 °F -9.0 °F 79% 29.98 in 0.5 mi ENE 26.5 mph - 0.00 in Snow Snow
7:53 AM -2.9 °F -29.8 °F -9.0 °F 75% 29.95 in 0.5 mi ENE 29.9 mph 36.8 mph 0.00 in Snow Snow
8:53 AM -2.9 °F -29.4 °F -9.0 °F 75% 29.95 in 0.5 mi ENE 28.8 mph - 0.00 in   Overcast
9:23 AM -2.2 °F -28.0 °F -9.4 °F 71% 29.94 in 0.5 mi ENE 27.6 mph 34.5 mph 0.00 in Snow Snow
9:42 AM -2.2 °F -28.0 °F -9.4 °F 71% 29.94 in 0.5 mi East 27.6 mph - 0.00 in Snow Snow
9:53 AM -2.9 °F -27.6 °F -9.0 °F 75% 29.94 in 0.8 mi East 24.2 mph - 0.00 in Snow Light Snow
10:20 AM -4.0 °F -30.4 °F -9.4 °F 78% 29.92 in 0.8 mi ENE 27.6 mph - 0.00 in Snow Light Snow
10:37 AM -4.0 °F -30.9 °F -9.4 °F 78% 29.91 in 0.5 mi ENE 28.8 mph 34.5 mph 0.00 in Snow Snow
10:53 AM -2.9 °F -29.0 °F -9.0 °F 75% 29.90 in 0.8 mi ENE 27.6 mph - 0.00 in   Overcast
11:02 AM -2.2 °F -27.1 °F -9.4 °F 71% 29.90 in 0.8 mi ENE 25.3 mph - 0.00 in   Overcast
11:12 AM -2.2 °F -26.7 °F -9.4 °F 71% 29.91 in 0.8 mi ENE 24.2 mph 32.2 mph 0.00 in   Overcast
11:20 AM -2.2 °F -26.7 °F -9.4 °F 71% 29.91 in 1.0 mi ENE 24.2 mph - 0.00 in   Overcast
11:32 AM -2.2 °F -27.1 °F -9.4 °F 71% 29.90 in 1.0 mi ENE 25.3 mph - 0.00 in   Overcast
11:53 AM -2.9 °F -27.6 °F -9.0 °F 75% 29.91 in 1.0 mi ENE 24.2 mph 32.2 mph 0.00 in   Overcast
12:44 PM -2.2 °F -28.0 °F -9.4 °F 71% 29.88 in 0.8 mi ENE 27.6 mph - 0.00 in   Overcast
1:06 PM -4.0 °F -30.0 °F -9.4 °F 78% 29.87 in 0.8 mi ENE 26.5 mph - 0.00 in   Overcast
1:25 PM -2.2 °F -28.4 °F -9.4 °F 71% 29.87 in 1.0 mi ENE 28.8 mph - 0.00 in   Overcast
1:53 PM -2.9 °F -29.0 °F -9.0 °F 75% 29.86 in 1.2 mi ENE 27.6 mph - 0.00 in   Overcast
2:53 PM -2.9 °F -29.0 °F -9.0 °F 75% 29.84 in 1.5 mi ENE 27.6 mph - 0.00 in   Haze
3:16 PM -2.2 °F -27.6 °F -9.4 °F 71% 29.82 in 0.8 mi NE 26.5 mph 31.1 mph 0.00 in   Mostly Cloudy
3:53 PM -2.0 °F -26.9 °F -7.1 °F 79% 29.80 in 1.0 mi NE 25.3 mph 34.5 mph 0.00 in   Mostly Cloudy
4:26 PM -0.4 °F -24.7 °F -5.8 °F 78% 29.79 in 2.5 mi ENE 25.3 mph - 0.00 in Snow Blowing Snow
4:53 PM -0.0 °F -24.3 °F -5.1 °F 79% 29.77 in 2.5 mi ENE 25.3 mph - 0.00 in Snow Blowing Snow
5:31 PM -0.4 °F -24.3 °F -5.8 °F 78% 29.77 in 4.0 mi ENE 24.2 mph - N/A Snow Blowing Snow
5:53 PM -0.0 °F -23.8 °F -5.1 °F 79% 29.77 in 5.0 mi ENE 24.2 mph - N/A   Haze
6:53 PM -0.0 °F -23.3 °F -6.0 °F 76% 29.75 in 5.0 mi ENE 23.0 mph - N/A   Haze
7:53 PM 1.0 °F -20.9 °F -5.1 °F 75% 29.73 in 7.0 mi ENE 20.7 mph - N/A   Mostly Cloudy
8:53 PM 1.9 °F -18.1 °F -5.1 °F 72% 29.71 in 10.0 mi NE 17.3 mph - N/A   Mostly Cloudy
9:53 PM 3.0 °F -17.8 °F -2.9 °F 76% 29.68 in 10.0 mi NE 19.6 mph - N/A   Partly Cloudy
10:53 PM 3.9 °F -14.3 °F -2.9 °F 73% 29.68 in 10.0 mi NE 15.0 mph - N/A   Overcast
11:53 PM 3.9 °F -17.1 °F -2.0 °F 76% 29.68 in 10.0 mi ENE 20.7 mph - N/A   Mostly Cloudy